STARLINK-31332 (59566 NORAD) Tracking and Keplerian Element Data

This shows tracking and keplerian element data for the satellite.

Feedback or suggestion? Click here.




ElementValue
Catalog59566
NameSTARLINK-31332
Epoch Orbit824
Epoch Day159.70762125
Epoch Year2024
RAAN56.3562
Inclination43.0006
Eccentricity0.0001494
Argument of Perigee279.0502
Mean Anonmoly81.0185
Mean Motion15.40699492
Decay Rate5.004E-05
L11 59566U 24076C 24159.70762125 .00005004 00000+0 12697-3 0 9997
L22 59566 43.0006 56.3562 0001494 279.0502 81.0185 15.40699492 8242



Live tracking and technical data element details for STARLINK-31332 (NORAD 59566). STARLINK-31332 can be tracked NOW for your location showing map with azimuth and elevation plus other details from your city location.







IsCatalogInMostPopularTable: catalog: 59566, numindb: 14
Update: records affected: 1



GetName: 59566 STARLINK-31332

Hit Count: updated at: Fri, 14 Jun 2024 18:53:22 GMT